Dillon, MT

4:30 AM MST on February 10, 2016 (GMT -0700)
Dillon

Weather History for KDLN - December, 2013

Change the Weather History Date:

Monday, December 23, 2013

  Actual Average Record
Temperature  
Mean Temperature 35 °F 20 °F  
Max Temperature 42 °F 30 °F 50 °F (1964)
Min Temperature 27 °F 11 °F -35 °F (1983)
Degree Days  
Heating Degree Days 30    
Month to date heating degree days 1118  
Since 1 July heating degree days 3047  
Cooling Degree Days 0    
Month to date cooling degree days 0  
Year to date cooling degree days 247  
Moisture  
Dew Point 28 °F    
Average Humidity 72    
Maximum Humidity 81    
Minimum Humidity 62    
Precipitation  
Precipitation T in 0.01 in 0.76 in (1955)
Month to date precipitation 0.14 0.22  
Year to date precipitation 9.95 10.52  
Snow  
Snow 0.00 in - - ()
Snow Depth T in    
Sea Level Pressure  
Sea Level Pressure 30.09 in    
Wind  
Wind Speed 17 mph (SW)    
Max Wind Speed 37 mph    
Max Gust Speed 47 mph    
Visibility 10 miles    
Events Rain , Snow    
T = Trace of Precipitation, MM = Missing Value Source: NWS Daily Summary

Daily Weather History Graph

Daily Weather History Graph

Search for Another Location

Airport or City:

Trip Planner

Search our weather history database for the weather conditions in past years. The results will help you decide how hot, cold, wet, or windy it might be!

Date:

Astronomy

Dec. 23, 2013 Rise Set
Actual Time 8:07 AM MST 4:51 PM MST
Civil Twilight 7:33 AM MST 5:25 PM MST
Nautical Twilight 6:55 AM MST 6:03 PM MST
Astronomical Twilight 6:19 AM MST 6:39 PM MST
Moon 11:21 PM MST (12/23) 11:19 AM MST (12/23)
Length of Visible Light 9h 52m
Length of Day
8h 44m
Waning Gibbous, 67% of the Moon is Illuminated
Dec 23
Waning Gibbous
Dec 25
Last Quarter
Jan 1
New
Jan 7
First Quarter
Jan 15
Full

Hourly Weather History & Observations

Time (MST) Temp. Windchill Dew Point Humidity Pressure Visibility Wind Dir Wind Speed Gust Speed Precip Events Conditions
12:53 AM 32.0 °F 24.8 °F 25.0 °F 75% 30.20 in 10.0 mi SSW 8.1 mph - N/A   Overcast
1:53 AM 34.0 °F 25.0 °F 26.1 °F 73% 30.19 in 10.0 mi SSW 12.7 mph - N/A   Overcast
2:53 AM 33.1 °F 23.4 °F 26.1 °F 75% 30.20 in 10.0 mi SW 13.8 mph - N/A   Mostly Cloudy
3:53 AM 34.0 °F 24.6 °F 26.1 °F 73% 30.20 in 10.0 mi SSW 13.8 mph - N/A   Overcast
4:53 AM 36.0 °F 26.3 °F 27.0 °F 70% 30.20 in 10.0 mi SSW 16.1 mph - N/A   Overcast
5:53 AM 36.0 °F 26.0 °F 27.0 °F 70% 30.21 in 10.0 mi SW 17.3 mph - N/A   Overcast
6:53 AM 37.0 °F 27.0 °F 28.0 °F 70% 30.19 in 10.0 mi SW 18.4 mph - N/A   Overcast
7:53 AM 36.0 °F 29.0 °F 27.0 °F 70% 30.23 in 10.0 mi South 9.2 mph - N/A   Overcast
8:53 AM 36.0 °F 28.0 °F 27.0 °F 70% 30.24 in 10.0 mi South 11.5 mph - N/A   Overcast
9:53 AM 37.9 °F 28.2 °F 27.0 °F 65% 30.20 in 10.0 mi SW 18.4 mph - N/A   Overcast
10:53 AM 37.9 °F 28.5 °F 28.0 °F 68% 30.19 in 10.0 mi SSW 17.3 mph - N/A   Mostly Cloudy
11:53 AM 39.0 °F 29.3 °F 28.9 °F 67% 30.15 in 10.0 mi SSW 19.6 mph - N/A   Clear
12:53 PM 39.9 °F 32.9 °F 28.9 °F 65% 30.12 in 10.0 mi South 11.5 mph - N/A   Mostly Cloudy
1:53 PM 39.9 °F 31.8 °F 28.9 °F 65% 30.10 in 10.0 mi South 15.0 mph - N/A   Mostly Cloudy
2:53 PM 42.1 °F 34.9 °F 30.0 °F 62% 30.07 in 10.0 mi SSW 13.8 mph - N/A   Overcast
3:53 PM 39.9 °F 30.8 °F 30.0 °F 68% 30.07 in 10.0 mi SSW 18.4 mph - N/A   Scattered Clouds
4:53 PM 41.0 °F 33.9 °F 30.0 °F 65% 30.05 in 10.0 mi South 12.7 mph - N/A   Mostly Cloudy
5:53 PM 39.9 °F 32.5 °F 30.0 °F 68% 30.04 in 10.0 mi SSW 12.7 mph - N/A   Overcast
6:53 PM 39.9 °F 31.8 °F 28.9 °F 65% 29.97 in 10.0 mi South 15.0 mph - N/A   Clear
7:53 PM 37.0 °F 27.0 °F 28.0 °F 70% 29.94 in 10.0 mi SW 18.4 mph - N/A   Clear
8:53 PM 37.0 °F 27.7 °F 28.0 °F 70% 29.90 in 10.0 mi SW 16.1 mph - N/A   Mostly Cloudy
9:53 PM 39.9 °F 28.0 °F 30.9 °F 70% 29.91 in 10.0 mi WSW 32.2 mph 44.9 mph 0.00 in Rain Light Rain
10:23 PM 35.1 °F 25.5 °F 30.9 °F 85% 29.96 in 10.0 mi NW 15.0 mph 24.2 mph 0.00 in   Overcast
10:27 PM 34.0 °F 23.0 °F 30.9 °F 89% 29.97 in 10.0 mi NW 18.4 mph 23.0 mph 0.00 in   Overcast
10:41 PM 35.1 °F 23.5 °F 30.9 °F 85% 29.99 in 7.0 mi West 21.9 mph 33.4 mph 0.00 in Snow Light Snow
10:53 PM 35.1 °F 23.8 °F 28.9 °F 78% 30.02 in 2.0 mi West 20.7 mph 46.0 mph 0.00 in Snow Light Snow
11:04 PM 35.1 °F 24.5 °F 28.9 °F 78% 29.98 in 7.0 mi SW 18.4 mph - 0.00 in Snow Light Snow
11:17 PM 35.1 °F 25.2 °F 28.0 °F 76% 29.99 in 10.0 mi WSW 16.1 mph 20.7 mph 0.00 in   Overcast
11:53 PM 35.1 °F 23.8 °F 24.1 °F 64% 30.06 in 10.0 mi NNW 20.7 mph 32.2 mph 0.00 in   Overcast